Regional Weather Roundup
Issued by NWS

Home | Current Version | Previous Version | Graphics & Text | Print | Product List | Glossary On
Versions: 1 2 3 4 5 6 7 8 9 10 11 12 13 14 15 16 17 18 19 20 21 22 23 24 25 26 27 28 29 30 31 32 33 34 35 36 37 38 39 40 41 42 43 44 45 46 47 48 49 50
000
ASUS45 KBOU 180607
RWRCO

WEATHER ROUNDUP FOR COLORADO
NATIONAL WEATHER SERVICE DENVER/BOULDER CO
1200 AM MDT SAT APR 18 2015

NOTE: "FAIR" INDICATES FEW OR NO CLOUDS BELOW 12000 FEET WITH NO
SIGNIFICANT WEATHER AND/OR OBSTRUCTIONS TO VISIBILITY.

COZ001>005-013-030-031-180700-
...NORTHWEST COLORADO...

CITY           SKY/WX    TMP DP  RH WIND       PRES   REMARKS
CRAIG          MOCLDY    32  30  92 CALM      30.04R
HAYDEN         MOCLDY    34  28  80 CALM      30.03S
MEEKER         CLOUDY    37  34  89 MISG      30.04S
MOUNT WERNER   NOT AVBL
STEAMBOAT SPGS MOCLDY    32  23  69 CALM      30.02S
WALDEN         CLOUDY    28  23  80 NW7       30.04F WCI  21
$$

COZ006>008-011-180700-
...WEST CENTRAL VALLEYS...

CITY           SKY/WX    TMP DP  RH WIND       PRES   REMARKS
GRAND JUNCTION CLOUDY    35  35 100 CALM      30.06R
MONTROSE       LGT SNOW  33  32  96 SE3       30.06S FOG
EAGLE          CLOUDY    30  30 100 CALM      30.08S
RIFLE          CLOUDY    36  34  92 NE5       30.06F FOG
DELTA          LGT SNOW  35  34  96 CALM      30.07R
NUCLA          LGT SNOW  32  32 100 CALM      30.07S
$$

COZ017>023-064>068-180700-
...SOUTHWEST COLORADO...

CITY           SKY/WX    TMP DP  RH WIND       PRES   REMARKS
DURANGO        CLOUDY    36  25  64 SW6       30.02F
CORTEZ         LGT SNOW  32  32 100 CALM      30.03F VSB 3/4
PAGOSA SPRINGS CLOUDY    29  19  68 CALM      30.05S
TELLURIDE      LGT SNOW  26  24  93 SE3       30.03F
WOLF CREEK PAS FLURRIES  12  12 100 SW3       30.06S
$$

COZ009-010-012-014-032>034-037-058>063-180700-
...CENTRAL COLORADO...

CITY           SKY/WX    TMP DP  RH WIND       PRES   REMARKS
ASPEN          PTCLDY    23  18  81 SW6       30.05S WCI  16
BUENA VISTA    MOCLDY    24  16  72 NW10      30.05S WCI  13
COPPER MTN     CLOUDY    21   7  53 E3        30.05F
BERTHOUD PASS  SNOW      12   5  73 MISG      30.07F VSB 1/2
COTTONWOOD PAS MOCLDY    27  14  59 W10       30.03F WCI  17
GUNNISON       PTCLDY    27  21  80 NE7       30.08R WCI  19
KREMMLING      MOCLDY    32  23  69 CALM      30.06S
LEADVILLE      CLOUDY    15   9  76 CALM      30.05S
MONARCH PASS     N/A     14  12  92 MISG      30.12F
SALIDA         MOCLDY    26  20  77 W6        30.12F WCI  19
SUNLIGHT       PTCLDY   N/A N/A N/A CALM      30.08F
WILKERSON PASS CLOUDY    19  18  93 NE5       30.05F WCI  13
$$

COZ069>075-180700-
...SAN LUIS VALLEY/SANGRE DE CRISTO MOUNTAINS...

CITY           SKY/WX    TMP DP  RH WIND       PRES   REMARKS
ALAMOSA        PTCLDY    26  21  81 E7        30.03F WCI  18
LA VETA PASS   CLOUDY    21  14  73 MISG      30.01S
SAGUACHE       PTCLDY    27  23  86 NW7       30.04S WCI  19
$$

COZ035-036-038>040-180700-
...NORTHERN COLORADO FRONT RANGE...

CITY           SKY/WX    TMP DP  RH WIND       PRES   REMARKS
DENVER INTL AP CLOUDY    39  38  96 N12       30.02F
DMNS CITY PARK   N/A     40  34  78 NE6G13    30.03S
AURORA         CLOUDY    39  38  99 N8        30.03F
FRONT RANGE AP CLOUDY    41  41 100 N10       30.03F
ERIE MUNI ARPT CLOUDY    40  36  85 N6        30.03S
BOULDER MUN AP CLOUDY    41  36  81 CALM      30.04R
CENTENNIAL     CLOUDY    35  35 100 NW6       30.03R WCI  30
BROOMFIELD     CLOUDY    39  36  87 N9        30.03F
FORT COLLINS   CLOUDY    41  34  75 N15       30.07S
LONGMONT       CLOUDY    44  36  73 N7        30.06S
$$

COZ041-046-047-076>085-087-088-180700-
...PIKES PEAK/PALMER DIVIDE AND SOUTHERN FOOTHILLS...

CITY           SKY/WX    TMP DP  RH WIND       PRES   REMARKS
COLO. SPRINGS  MOCLDY    36  31  82 N10       30.00S
A. F. ACADEMY  PTCLDY    30  30  99 N8        30.00R WCI  23
ELLICOTT       PTCLDY   N/A N/A N/A N7        29.99R
FALCON         PTCLDY    32  30  93 NW12      30.02R WCI  23
FORT CARSON    CLEAR     34  31  87 N9        29.99R WCI  27
LIMON          LGT RAIN  37  34  89 N13       29.99F
MONUMENT HILL  CLOUDY    28  28 100 W3        30.02R FOG
TRINIDAD       CLOUDY    41  29  62 W8        30.01R
$$

COZ042>045-048>051-090-091-180700-
...NORTHEAST COLORADO...

CITY           SKY/WX    TMP DP  RH WIND       PRES   REMARKS
GREELEY ARPT   CLOUDY    39  32  75 NE10      30.06S
AKRON          CLOUDY    41  41 100 N10       30.01S
BURLINGTON     MOCLDY    48  42  80 NE3       29.98R
WRAY           CLOUDY    50  45  84 W7        29.99R
STERLING       CLOUDY    43  41  93 N18       30.00S
HOLYOKE        CLOUDY    46  43  87 NW10      30.00R
FORT MORGAN    CLOUDY    40  37  89 N9        30.04R
$$

COZ086-089-092>099-180700-
...SOUTHEAST COLORADO...

CITY           SKY/WX    TMP DP  RH WIND       PRES   REMARKS
PUEBLO         PTCLDY    40  34  79 W7        29.98S
LA JUNTA       PTCLDY    42  37  82 W9        29.96F
LAMAR          CLEAR     40  36  86 S6        29.96R
SPRINGFIELD      N/A     38  32  79 NW3       29.98R
$$


USA.gov is the U.S. government's official web portal to all federal, state and local government web resources and services.